YO8KGT-13 Weather Reports


time (UTC)temp
F
wind
direction
speed
knots
gust
knots
rain 1hr
in
rain 24hr
in
rain mn
in
humidity
%
barometer
mb
20260506061926 66 338 0.0 0.0 0.00 0.00 0.00 54 944.0
20260506061425 64 0 0.0 0.0 0.00 0.00 0.00 55 943.0
20260506050445 56 248 0.0 0.9 0.00 0.00 0.00 61 943.0
20260506044925 55 248 0.0 0.0 0.00 0.00 0.00 61 943.0
20260506043427 55 248 0.0 0.0 0.00 0.00 0.00 61 943.0
20260506041430 55 248 0.0 0.0 0.00 0.00 0.00 61 943.0
20260506040924 54 248 0.0 0.0 0.00 0.00 0.00 61 943.0
20260506035933 53 248 0.0 0.0 0.00 0.00 0.00 61 943.0
20260506035426 53 248 0.0 0.0 0.00 0.00 0.00 61 943.0
20260506034425 52 248 0.0 0.0 0.00 0.00 0.00 62 943.0
20260506031430 50 248 0.0 0.0 0.00 0.00 0.00 62 943.0
20260506030931 50 248 0.0 0.0 0.00 0.00 0.00 62 943.0
20260506030425 50 248 0.0 0.0 0.00 0.00 0.00 62 943.0
20260506024925 50 248 0.0 0.0 0.00 0.00 0.00 61 943.0
20260506024429 50 248 0.0 0.0 0.00 0.00 0.00 61 943.0
20260506023925 50 248 0.0 0.0 0.00 0.00 0.00 61 943.0
20260506015425 51 248 0.0 0.0 0.00 0.00 0.00 60 943.0
20260506014931 51 248 0.0 0.0 0.00 0.00 0.00 59 943.0
20260506014425 51 248 0.0 0.0 0.00 0.00 0.00 59 943.0
20260506012426 52 248 0.0 0.0 0.00 0.00 0.00 58 943.0
20260506011428 52 248 0.0 0.0 0.00 0.00 0.00 57 943.0
20260506010428 52 248 0.0 0.0 0.00 0.00 0.00 57 943.0
20260506005924 53 248 0.0 0.0 0.00 0.00 0.00 57 943.0
20260506005426 53 248 0.0 0.0 0.00 0.00 0.00 57 943.0
20260506004928 53 0 0.0 0.0 0.00 0.00 0.00 57 943.0
20260506004432 53 248 0.0 0.0 0.00 0.00 0.00 56 942.0
20260506003924 53 248 0.0 0.0 0.00 0.00 0.00 56 943.0
20260506003426 54 248 0.0 1.7 0.00 0.00 0.00 56 943.0
20260506002438 54 248 0.0 1.7 0.00 0.00 0.00 55 942.0
20260506001925 54 248 0.0 0.0 0.00 0.00 0.00 55 943.0
20260506001426 54 248 0.0 0.0 0.00 0.00 0.00 55 943.0
20260506000924 54 248 0.0 0.0 0.00 0.00 0.00 55 943.0
20260506000426 55 248 0.0 0.9 0.00 0.00 0.00 55 942.0
20260505235924 55 248 0.0 0.9 0.00 0.00 0.00 55 943.0
20260505234427 55 248 0.0 0.0 0.00 0.00 0.00 55 942.0
20260505233426 55 248 0.0 2.6 0.00 0.00 0.00 56 943.0
20260505232924 55 248 0.0 2.6 0.00 0.00 0.00 56 942.0
20260505232440 55 248 0.0 2.6 0.00 0.00 0.00 55 942.0
20260505231941 55 248 1.7 2.6 0.00 0.00 0.00 55 942.0
20260505230925 55 0 0.0 2.6 0.00 0.00 0.00 54 942.0
20260505225926 55 270 0.0 3.5 0.00 0.00 0.00 54 942.0
20260505225426 55 270 0.9 3.5 0.00 0.00 0.00 53 942.0
20260505224928 55 270 1.7 3.5 0.00 0.00 0.00 53 942.0
20260505224425 55 292 2.6 2.6 0.00 0.00 0.00 52 943.0
20260505223934 55 292 2.6 2.6 0.00 0.00 0.00 52 942.0
20260505223432 55 292 1.7 1.7 0.00 0.00 0.00 51 943.0
20260505222928 56 292 0.0 1.7 0.00 0.00 0.00 51 942.0
20260505221946 56 292 0.0 2.6 0.00 0.00 0.00 50 942.0
20260505221502 56 292 1.7 2.6 0.00 0.00 0.00 50 942.0
20260505220429 56 292 0.0 1.7 0.00 0.00 0.00 49 943.0
20260505213925 58 292 0.0 0.0 0.00 0.00 0.00 47 942.0
20260505213428 58 292 0.0 0.0 0.00 0.00 0.00 47 942.0
20260505212955 58 292 0.0 0.0 0.00 0.00 0.00 46 942.0
20260505212425 58 292 0.0 0.0 0.00 0.00 0.00 46 943.0
20260505211924 58 292 0.0 0.0 0.00 0.00 0.00 45 942.0
20260505211435 58 292 0.0 0.0 0.00 0.00 0.00 45 942.0
20260505210925 59 292 0.0 0.0 0.00 0.00 0.00 44 942.0
20260505210424 59 292 0.0 0.0 0.00 0.00 0.00 44 942.0
20260505205448 59 292 0.0 0.0 0.00 0.00 0.00 43 942.0
20260505204924 60 292 0.0 0.0 0.00 0.00 0.00 42 942.0
20260505204447 60 292 0.0 0.9 0.00 0.00 0.00 42 942.0
20260505203929 61 292 0.0 0.9 0.00 0.00 0.00 42 942.0
20260505195943 62 292 0.0 0.0 0.00 0.00 0.00 39 942.0
20260505195425 63 292 0.0 0.0 0.00 0.00 0.00 39 942.0
20260505194943 63 292 0.0 0.0 0.00 0.00 0.00 38 942.0
20260505194425 63 292 0.0 0.0 0.00 0.00 0.00 38 942.0
20260505192924 63 292 0.0 0.0 0.00 0.00 0.00 37 942.0
20260505192429 64 292 0.0 0.0 0.00 0.00 0.00 37 942.0
20260505191925 64 292 0.0 0.0 0.00 0.00 0.00 36 942.0
20260505191433 64 292 0.0 0.0 0.00 0.00 0.00 36 942.0
20260505190924 64 292 0.0 0.0 0.00 0.00 0.00 35 942.0
20260505185928 65 292 0.0 0.0 0.00 0.00 0.00 34 942.0
20260505185425 65 292 0.0 0.0 0.00 0.00 0.00 34 942.0
20260505184924 66 292 0.0 0.0 0.00 0.00 0.00 33 942.0
20260505183925 66 292 0.0 0.0 0.00 0.00 0.00 33 942.0
20260505183425 67 292 0.0 0.0 0.00 0.00 0.00 33 942.0
20260505182428 67 292 0.0 0.9 0.00 0.00 0.00 32 942.0
20260505181930 68 292 0.0 0.9 0.00 0.00 0.00 32 942.0
20260505181429 68 292 0.0 0.9 0.00 0.00 0.00 32 942.0
20260505180925 68 292 0.0 0.9 0.00 0.00 0.00 31 942.0
20260505175938 69 292 0.0 1.7 0.00 0.00 0.00 31 942.0
20260505175425 69 292 1.7 1.7 0.00 0.00 0.00 31 942.0
20260505174447 70 292 0.0 2.6 0.00 0.00 0.00 31 941.0
20260505173924 70 292 0.0 2.6 0.00 0.00 0.00 30 941.0
20260505173424 70 292 2.6 2.6 0.00 0.00 0.00 30 941.0
20260505172425 71 315 0.0 0.9 0.00 0.00 0.00 30 941.0
20260505170925 72 315 0.0 0.9 0.00 0.00 0.00 29 941.0
20260505170428 72 22 0.0 0.9 0.00 0.00 0.00 29 941.0
20260505165437 73 22 0.0 0.0 0.00 0.00 0.00 28 941.0
20260505164925 73 22 0.0 0.0 0.00 0.00 0.00 28 941.0
20260505164424 74 22 0.0 0.0 0.00 0.00 0.00 27 941.0
20260505163924 74 22 0.0 0.0 0.00 0.00 0.00 26 941.0
20260505162925 74 22 0.0 0.0 0.00 0.00 0.00 25 941.0
20260505161925 75 22 0.0 1.7 0.00 0.00 0.00 24 941.0
20260505161430 75 22 0.0 1.7 0.00 0.00 0.00 24 941.0
20260505160930 75 22 0.0 1.7 0.00 0.00 0.00 23 941.0
20260505160425 76 22 0.0 0.0 0.00 0.00 0.00 23 941.0
20260505152924 78 68 0.0 0.9 0.00 9.83 0.00 21 941.0
20260505152423 78 68 0.0 0.9 0.00 0.00 0.00 21 941.0
20260505151425 78 45 0.0 0.9 0.00 0.00 0.00 21 941.0
20260505150931 79 45 0.0 0.9 0.00 0.00 0.00 21 941.0
20260505140434 84 45 0.0 0.0 0.00 0.00 0.00 20 942.0
20260505124923 88 292 0.0 0.9 0.00 0.00 0.00 23 942.0
20260505124425 88 68 0.0 1.7 0.00 0.00 0.00 22 943.0
20260505123942 88 22 0.0 1.7 0.00 0.00 0.00 22 943.0
20260505123425 88 90 0.0 2.6 0.00 0.00 0.00 23 943.0
20260505122423 88 0 0.0 0.0 0.00 0.00 0.00 24 943.0
20260505121424 88 45 0.0 0.9 0.00 0.00 0.00 24 943.0
20260505120928 87 0 0.0 5.2 0.00 0.00 0.00 24 943.0
20260505115926 88 22 5.2 5.2 0.00 0.00 0.00 24 943.0
20260505115429 88 45 0.0 2.6 0.00 0.00 0.00 25 943.0
20260505114425 89 22 2.6 2.6 0.00 0.00 0.00 24 943.0
20260505113924 89 135 0.0 1.7 0.00 0.00 0.00 25 943.0
20260505113443 89 135 0.0 1.7 0.00 0.00 0.00 25 944.0
20260505112923 89 135 1.7 1.7 0.00 0.00 0.00 25 943.0
20260505112424 89 22 0.0 0.0 0.00 0.00 0.00 26 944.0
20260505111923 89 22 0.0 2.6 0.00 0.00 0.00 25 944.0
20260505111444 89 112 0.0 2.6 0.00 0.00 0.00 26 944.0
20260505110425 88 338 0.0 0.9 0.00 0.00 0.00 26 944.0
20260505101922 86 22 0.0 1.7 0.00 0.00 0.00 26 944.0
20260505101424 86 22 0.0 1.7 0.00 0.00 0.00 27 944.0
20260505100924 86 22 0.0 1.7 0.00 0.00 0.00 28 944.0
20260505095924 84 22 0.0 3.5 0.00 0.00 0.00 27 944.0
20260505094924 83 22 0.0 3.5 0.00 0.00 0.00 29 945.0
20260505094432 83 22 2.6 2.6 0.00 0.00 0.00 30 944.0
20260505093926 83 22 0.0 3.5 0.00 0.00 0.00 31 945.0
20260505093422 82 22 0.0 3.5 0.00 0.00 0.00 31 945.0
20260505092941 82 22 2.6 3.5 0.00 0.00 0.00 31 945.0
20260505092446 82 0 0.0 2.6 0.00 0.00 0.00 33 945.0
20260505091424 81 0 0.0 1.7 0.00 0.00 0.00 34 945.0
20260505090928 80 22 1.7 1.7 0.00 0.00 0.00 35 945.0
20260505090424 80 0 0.0 1.7 0.00 0.00 0.00 35 945.0
20260505085930 80 0 0.0 1.7 0.00 0.00 0.00 36 945.0
20260505085423 79 0 1.7 1.7 0.00 0.00 0.00 36 945.0
20260505084926 79 0 0.0 1.7 0.00 0.00 0.00 36 945.0
20260505084437 79 0 0.0 1.7 0.00 0.00 0.00 36 945.0
20260505083935 78 0 0.0 0.0 0.00 0.00 0.00 37 945.0
20260505083423 78 22 0.0 1.7 0.00 0.00 0.00 37 946.0
20260505082923 78 0 0.0 1.7 0.00 0.00 0.00 37 946.0
20260505082012 77 0 1.7 1.7 0.00 0.00 0.00 38 946.0
20260505080923 76 0 0.0 0.0 0.00 0.00 0.00 39 946.0
20260505080423 76 0 0.0 0.0 0.00 0.00 0.00 39 946.0
20260505074923 75 0 0.0 2.6 0.00 0.00 0.00 40 946.0
20260505074423 74 0 0.0 2.6 0.00 0.00 0.00 41 946.0
20260505072925 73 0 0.0 0.0 0.00 0.00 0.00 43 946.0
20260505072426 73 0 0.0 0.0 0.00 0.00 0.00 44 946.0
20260505071923 72 0 0.0 0.0 0.00 0.00 0.00 45 946.0
20260505071427 72 22 0.0 0.0 0.00 0.00 0.00 45 946.0
20260505070928 72 22 0.0 0.0 0.00 0.00 0.00 45 946.0